Home   Weather   Garland   Past weeks

Flag for USA Past Weather in Garland, Texas, USA — Yesterday and Last 2 Weeks

Now
83 °F

Passing clouds.


Feels Like: 86 °F
Forecast: 75 / 88 °F
Wind: No wind

Location: Mesquite Metro Airport

Current Time: Aug 31, 2016 at 10:44:29 PM

Latest Report: Aug 31, 2016 at 10:15 PM


Visibility: 10 mi

Pressure: 29.97 "Hg

Humidity: 63%

Dew Point: 69 °F

Location of GarlandLocation

Past Weather in Garland — Graph

°F

Garland Temperature Yesterday

Maximum temperature yesterday: 91 °F (at 3:50 PM)
Minimum temperature yesterday: 71 °F (at 3:15 AM)
Average temperature yesterday: 78 °F

High & Low Weather Summary for the Past Weeks

 TemperatureHumidityPressure
High93 °F (Aug 25, 3:50 PM)100% (Aug 17, 3:15 AM)30.16 "Hg (Aug 17, 3:15 AM)
Low70 °F (Aug 27, 5:15 AM)43% (Aug 21, 2:50 PM)29.85 "Hg (Aug 20, 5:35 AM)
Average77 °F88%30.02 "Hg
* Reported Aug 16 9:15 PM — Aug 31 9:35 PM, Garland, Weather by CustomWeather, © 2016

Note: Actual official high and low records may vary slightly from our data, if they occured in-between our weather recording intervals... More about our weather records

Advertising

Garland Weather History for the Previous 24 Hours

Scroll right to see more
 ConditionsComfort  
Time TempWeatherWind HumidityBarometerVisibility
9:35 PM
Wed, Aug 31
82 °FPartly cloudy.No wind69%29.96 "Hg10 mi
9:15 PM83 °FPassing clouds.No wind65%29.95 "Hg10 mi
8:55 PM84 °FPassing clouds.No wind62%29.94 "Hg10 mi
8:35 PM85 °FBroken clouds.No wind58%29.94 "Hg10 mi
8:15 PM87 °FBroken clouds.No wind54%29.93 "Hg10 mi
7:50 PM88 °FScattered clouds.No wind52%29.91 "Hg10 mi
6:50 PM88 °FScattered clouds.No wind52%29.91 "Hg10 mi
5:50 PM90 °FScattered clouds.No wind46%29.90 "Hg10 mi
4:50 PM91 °FScattered clouds.3 mph46%29.91 "Hg7 mi
3:50 PM91 °FScattered clouds.8 mph49%29.93 "Hg10 mi
2:50 PM91 °FScattered clouds.8 mph49%29.95 "Hg10 mi
12:50 PM90 °FSunny.9 mph55%30.00 "Hg10 mi
11:50 AM88 °FSunny.5 mph62%30.01 "Hg10 mi
10:50 AM84 °FSunny.3 mph74%30.02 "Hg10 mi
9:50 AM82 °FSunny.No wind79%30.01 "Hg10 mi
8:50 AM79 °FSunny.6 mph89%30.01 "Hg10 mi
7:50 AM75 °FPassing clouds.8 mph100%30.01 "Hg10 mi
6:50 AM75 °FClear.3 mph94%30.00 "Hg10 mi
6:15 AM74 °FClear.5 mph98%30.00 "Hg10 mi
5:55 AM74 °FClear.3 mph98%29.99 "Hg10 mi
5:35 AM74 °FClear.3 mph98%29.99 "Hg10 mi
5:15 AM74 °FClear.3 mph98%29.99 "Hg10 mi
4:55 AM74 °FClear.3 mph98%29.99 "Hg10 mi
4:35 AM74 °FClear.3 mph97%30.00 "Hg10 mi
4:15 AM75 °FClear.No wind95%30.00 "Hg10 mi
3:55 AM75 °FClear.No wind95%30.01 "Hg10 mi
3:35 AM75 °FClear.No wind94%30.01 "Hg10 mi
3:15 AM75 °FClear.3 mph94%30.01 "Hg10 mi
2:55 AM76 °FClear.3 mph93%30.01 "Hg10 mi
2:35 AM76 °FClear.No wind92%30.01 "Hg10 mi
2:15 AM77 °FClear.No wind90%30.00 "Hg10 mi
1:55 AM77 °FClear.No wind88%30.01 "Hg10 mi
1:35 AM76 °FClear.3 mph92%30.01 "Hg10 mi
1:15 AM76 °FClear.5 mph95%30.01 "Hg10 mi
12:55 AM77 °FClear.3 mph91%30.01 "Hg10 mi
12:35 AM78 °FClear.5 mph92%30.01 "Hg10 mi
12:15 AM78 °FClear.3 mph93%30.01 "Hg10 mi
11:55 PM
Tue, Aug 30
78 °FClear.No wind93%30.01 "Hg10 mi
11:35 PM78 °FClear.No wind89%30.01 "Hg10 mi
11:15 PM79 °FClear.No wind86%30.01 "Hg10 mi
10:55 PM80 °FClear.No wind81%30.00 "Hg10 mi
10:35 PM81 °FClear.No wind79%30.00 "Hg10 mi
10:15 PM81 °FClear.3 mph79%30.00 "Hg10 mi
Weather by CustomWeather, © 2016

See weather overviewHow to use our weather pages